Historyczne dane pomiarowe

Dodano dane terminowe – wersja testowa.

Dane z okresu 1951-2019

Wersja bazy: 1.34 [2019-03-16, lista zmian], aktualizacja planowana na 2019-04-15

Dane meteo z obszaru Polski uzyskane na podstawie danych udostępnionych przez Instytut Meteorologii i Gospodarki Wodnej – Państwowy Instytut Badawczy.

 

Wybierz Datę:    

       

TemperaturaWilgotnośćWiatrCiśnienieOpadyŚniegCzas trwania zjawisk
 Stacja t tx tn tng RH VA  wxwx mslp ppp RRR   cm mm wxwxwxwxwxwxwx
2019-07-03 18.8 24.2 14.1 12.5 46.5- 2.7 2.7---- 0.0------------
2019-07-02 23.5 28.0 20.2 18.8 58.0- 4.7 2.0---- 0.0------------
2019-07-01 27.0 36.3 18.7 17.7 41.3- 4.3 3.0---- 0.0------------
2019-06-30 26.0 35.2 15.9 14.8 41.8- 0.0 1.3---- 0.0------------
2019-06-29 21.3 27.8 14.1 12.5 42.5- 3.7 1.3---- 0.0------------
2019-06-28 19.1 24.1 14.2 13.5 61.5- 6.0 1.3---- 0.0------------
2019-06-27 26.0 31.2 23.1 22.2 47.0- 1.3 2.7---- 0.0------------
2019-06-26 27.9 34.7 20.2 19.7 55.0- 1.3 2.3---- 0.0------------
2019-06-25 25.0 32.1 17.2 16.8 66.0- 1.0 3.0---- 0.0------------
2019-06-24 21.9 26.7 16.8 15.9 62.3- 5.0 2.3---- 0.0------------
2019-06-23 21.7 26.0 17.6 17.6 57.3- 6.7 3.0---- 0.0------------
2019-06-22 21.2 25.5 17.0 16.8 71.3- 5.3 2.0---- 21.6------------
2019-06-21 22.3 28.4 18.4 18.1 73.0- 6.0 2.7---- 0.2------------
2019-06-20 23.3 29.1 19.1 18.5 67.8- 6.7 1.3---- 2.0------------
2019-06-19 22.9 29.4 16.9 16.6 66.0- 5.0 1.3---- 0.2------------
2019-06-18 20.5 26.2 14.6 14.4 68.3- 4.0 2.0---- 0.0------------
2019-06-17 20.4 24.3 17.8 17.8 64.3- 5.7 1.3---- 0.0------------
2019-06-16 23.8 31.9 19.5 18.8 62.5- 5.0 1.7---- 1.4------------
2019-06-15 27.2 34.3 20.3 19.8 62.5- 5.0 1.3---- 0.0------------
2019-06-14 24.9 31.1 19.8 19.4 76.3- 4.3 2.0---- 0.0------------
2019-06-13 26.1 33.6 18.9 18.3 60.0- 2.7 1.7---- 1.2------------
2019-06-12 25.5 32.9 17.6 17.0 54.5- 1.0 2.0---- 0.0------------
2019-06-11 25.3 33.2 17.9 17.2 56.8- 1.0 2.3---- 0.0------------
2019-06-10 24.4 32.2 17.0 16.4 63.8- 1.3 2.7---- 0.0------------
2019-06-09 20.7 27.0 14.0 13.1 52.5- 1.3 2.3---- 0.0------------
2019-06-08 22.7 30.3 16.8 16.3 58.8- 4.0 1.7---- 0.0------------
2019-06-07 22.6 28.3 16.7 16.0 63.8- 4.0 1.3---- 0.0------------
2019-06-06 21.2 27.6 14.5 13.9 59.3- 3.0 2.7---- 0.0------------
2019-06-05 21.4 26.8 15.4 14.8 67.8- 2.7 2.7---- 0.3------------
2019-06-04 21.4 28.3 14.4 13.5 65.0- 2.3 2.3---- 0.0------------
2019-06-03 20.6 27.1 13.9 13.1 65.5- 1.0 2.7---- 0.0------------
2019-06-02 19.7 27.2 13.5 12.7 72.3- 2.0 2.0---- 0.0------------
2019-06-01 17.4 25.1 11.5 10.4 75.3- 6.3 1.7---- 4.1------------
2019-05-31 16.0 23.3 9.6 9.0 64.5- 3.7 1.3---- 0.0------------
2019-05-30 11.4 13.0 10.5 9.4 75.8- 8.0 1.0---- 2.9------------
2019-05-29 14.5 19.6 12.1 11.9 82.3- 8.0 1.3---- 0.2------------
2019-05-28 18.5 22.7 14.4 13.0 78.3- 6.0 1.7---- 2.3------------
2019-05-27 19.4 25.9 12.3 11.4 62.0- 6.0 1.3---- 2.5------------
2019-05-26 18.5 24.7 12.4 11.0 64.8- 4.0 1.3---- 0.0------------
2019-05-25 15.7 23.1 9.0 8.7 67.5- 3.3 1.3---- 0.0------------
2019-05-24 12.3 13.9 10.7 10.5 97.5- 7.7 1.3---- 0.8------------
2019-05-23 12.6 14.0 11.7 11.4 95.3- 8.0 2.3---- 45.2------------
2019-05-22 14.1 15.9 12.8 12.4 88.3- 8.0 2.3---- 19.7------------
2019-05-21 15.5 19.8 13.3 12.9 78.0- 8.0 1.7---- 23.9------------
2019-05-20 18.3 23.2 14.2 13.1 76.3- 6.7 1.7---- 0.0------------
2019-05-19 16.0 22.8 10.3 9.6 83.3- 3.7 1.7---- 13.7------------
2019-05-18 16.7 23.8 9.4 8.2 69.5- 4.0 1.7---- 0.0------------
2019-05-17 15.1 20.4 11.3 11.3 77.3- 6.7 2.0---- 0.4------------
2019-05-16 13.0 17.9 8.9 8.3 82.8- 6.3 1.3---- 1.7------------
2019-05-15 8.9 10.9 6.4 6.5 97.0- 8.0 1.0---- 10.2------------
2019-05-14 6.1 7.5 4.5 4.5 93.3- 8.0 1.3---- 10.8------------
2019-05-13 8.1 11.0 6.9 6.0 80.3- 8.0 1.3---- 9.5------------
2019-05-12 13.4 19.7 9.8 9.9 76.3- 7.0 2.3---- 4.4------------
2019-05-11 15.2 21.2 9.9 8.9 58.3- 3.3 2.3---- 0.0------------
2019-05-10 12.2 19.2 6.9 5.4 75.5- 5.3 2.0---- 0.0------------
2019-05-09 9.3 13.0 6.3 5.4 83.5- 8.0 1.0---- 4.3------------
2019-05-08 10.1 17.0 2.9 1.6 58.5- 3.3 1.7---- 0.2------------
2019-05-07 9.6 13.7 6.1 5.0 53.8- 4.3 1.7---- 0.0------------
2019-05-06 8.1 10.5 5.9 5.0 55.0- 8.0 1.7---- 0.0------------
2019-05-05 7.1 13.9 3.9 3.9 89.5- 8.0 1.7---- 2.6------------
2030.3 ms

 

Źródłem pochodzenia danych jest Instytut Meteorologii i Gospodarki Wodnej – Państwowy Instytut Badawczy. Dane Instytutu Meteorologii i Gospodarki Wodnej – Państwowego Instytutu Badawczego zostały przetworzone.

Dane źródłowe można odnaleźć na stronie https://dane.imgw.pl